This is the latest recevied weather packets stored in our database for station/object DB0WUN-13. If no packets are shown the sender has not sent any weather packets the latest 10 day(s).
| Time | Temp. | Humidity | Pressure | Rain* | Wind** | Luminosity | Snow |
|---|---|---|---|---|---|---|---|
| 1777526497 | 1.11° C | 61% | 1029.8 hPa | 0 mm | - | 153 W/m² | - |
| 1777526431 | 1.11° C | 62% | 1029.8 hPa | 0 mm | - | 151 W/m² | - |
| 1777526375 | 1.11° C | 62% | 1029.9 hPa | 0 mm | - | 149 W/m² | - |
| 1777526314 | 1.11° C | 62% | 1029.8 hPa | 0 mm | - | 142 W/m² | - |
| 1777526253 | 1.11° C | 62% | 1029.8 hPa | 0 mm | - | 137 W/m² | - |
| 1777526192 | 1.11° C | 61% | 1029.8 hPa | 0 mm | - | 134 W/m² | - |
| 1777526132 | 1.11° C | 62% | 1029.8 hPa | 0 mm | - | 130 W/m² | - |
| 1777526069 | 1.11° C | 62% | 1029.8 hPa | 0 mm | - | 127 W/m² | - |
| 1777526007 | 1.11° C | 62% | 1029.8 hPa | 0 mm | - | 118 W/m² | - |
| 1777525944 | 0.56° C | 62% | 1029.9 hPa | 0 mm | - | 114 W/m² | - |
| 1777525884 | 0.56° C | 62% | 1029.7 hPa | 0 mm | - | 113 W/m² | - |
| 1777525823 | 0.56° C | 62% | 1029.8 hPa | 0 mm | - | 109 W/m² | - |
| 1777525760 | 0.56° C | 61% | 1029.8 hPa | 0 mm | - | 105 W/m² | - |
| 1777525701 | 0.56° C | 61% | 1029.8 hPa | 0 mm | - | 102 W/m² | - |
| 1777525636 | 0.56° C | 61% | 1029.8 hPa | 0 mm | - | 98 W/m² | - |
| 1777525579 | 0.56° C | 61% | 1029.8 hPa | 0 mm | - | 97 W/m² | - |
| 1777525523 | 0.56° C | 61% | 1029.8 hPa | 0 mm | - | 95 W/m² | - |
| 1777525460 | 0.56° C | 61% | 1029.8 hPa | 0 mm | - | 91 W/m² | - |
| 1777525392 | 0.56° C | 62% | 1029.8 hPa | 0 mm | - | 90 W/m² | - |
| 1777525334 | 0.56° C | 62% | 1029.8 hPa | 0 mm | - | 88 W/m² | - |
| 1777525271 | 0.56° C | 62% | 1029.7 hPa | 0 mm | - | 86 W/m² | - |
| 1777525223 | 0.56° C | 62% | 1029.7 hPa | 0 mm | - | 86 W/m² | - |
| 1777525147 | 0.56° C | 62% | 1029.7 hPa | 0 mm | - | 84 W/m² | - |
| 1777525088 | 0.56° C | 62% | 1029.6 hPa | 0 mm | - | 81 W/m² | - |
| 1777525025 | 0.56° C | 63% | 1029.6 hPa | 0 mm | - | 81 W/m² | - |
* Rain latest hour (hover to see other rain measurements)
** Current wind speed in m/s (hover to see current wind gust speed)